Location: Ferchesar
(52.6477°N, 12.4298°E)
Time: 22:52:14
(UTC+01:00)

FENGYUN 1C DEB - Visible Passes

Search period start: 22 January 2022 00:00
Search period end: 01 February 2022 00:00
Orbit: 760 x 855 km, 99.1° (Epoch: 22 January)

Date Brightness Start Highest point End Pass type
(mag) Time Alt. Az. Time Alt. Az. Time Alt. Az.
22 Jan ? 04:49:15 10° SE 04:53:57 42° ENE 04:58:06 13° N visible
22 Jan ? 06:29:16 10° SSW 06:33:52 34° W 06:38:29 10° NNW visible
22 Jan ? 18:38:17 14° NNE 18:42:37 51° E 18:47:45 10° S visible
22 Jan ? 20:19:21 18° N 20:22:14 31° WNW 20:26:47 10° WSW visible
23 Jan ? 04:25:29 10° ESE 04:29:45 29° ENE 04:33:42 12° N visible
23 Jan ? 06:04:23 10° S 06:09:19 54° W 06:14:18 10° NNW visible
23 Jan ? 18:13:23 10° NNE 18:18:05 34° E 18:22:51 10° SSE visible
23 Jan ? 19:54:16 17° N 19:58:01 45° WNW 20:03:00 10° SW visible
23 Jan ? 21:35:27 10° NNW 21:36:39 11° NW 21:37:51 10° WNW visible
24 Jan ? 04:02:01 10° E 04:05:38 20° NE 04:09:15 10° N visible
24 Jan ? 05:39:48 10° SSE 05:44:52 83° WSW 05:49:57 10° NNW visible
24 Jan ? 07:22:51 10° WSW 07:25:30 14° W 07:28:08 10° NW visible
24 Jan ? 17:49:25 10° NE 17:53:28 22° E 17:57:33 10° SE visible
24 Jan ? 19:29:09 13° NNE 19:33:43 68° WNW 19:38:58 10° SSW visible
24 Jan ? 21:10:13 11° NNW 21:12:40 15° NW 21:15:37 10° W visible
25 Jan ? 03:38:58 10° E 03:41:35 14° NE 03:44:12 10° NNE visible
25 Jan ? 05:15:30 10° SSE 05:20:29 65° ENE 05:25:31 10° NNW visible
25 Jan ? 06:56:52 10° SW 07:00:45 22° W 07:04:39 10° NW visible
25 Jan ? 17:25:54 10° NE 17:28:45 15° E 17:31:37 10° ESE visible
25 Jan ? 19:04:07 10° NNE 19:09:20 81° ESE 19:14:40 10° SSW visible
25 Jan ? 20:45:03 11° N 20:48:37 22° NW 20:52:32 10° WSW visible
26 Jan ? 04:51:27 10° SE 04:56:11 43° ENE 05:00:58 10° N visible
26 Jan ? 06:31:34 10° SSW 06:36:07 34° W 06:40:43 10° NNW visible
26 Jan ? 18:39:47 10° NNE 18:44:53 53° ESE 18:50:06 10° S visible
26 Jan ? 20:19:58 10° N 20:24:29 31° WNW 20:29:04 10° WSW visible
27 Jan ? 04:27:40 10° ESE 04:31:59 29° ENE 04:36:19 10° N visible
27 Jan ? 06:06:39 10° S 06:11:33 52° W 06:16:32 10° NNW visible
27 Jan ? 18:15:35 10° NNE 18:20:22 35° E 18:25:13 10° SSE visible
27 Jan ? 19:55:20 10° N 20:00:16 44° WNW 20:05:18 10° SW visible
27 Jan ? 21:37:43 10° NNW 21:38:53 11° NW 21:40:04 10° WNW visible
28 Jan ? 04:04:11 10° E 04:07:51 21° NE 04:11:33 10° N visible
28 Jan ? 05:42:03 10° SSE 05:47:06 81° WSW 05:52:12 10° NNW visible
28 Jan ? 17:51:36 10° NE 17:55:45 23° E 17:59:56 10° SE visible
28 Jan ? 19:30:47 10° NNE 19:35:58 67° WNW 19:41:16 10° SSW visible
28 Jan ? 21:11:59 10° NNW 21:14:55 15° NW 21:17:52 10° W visible
29 Jan ? 03:41:05 10° E 03:43:48 15° NE 03:46:31 10° NNE visible
29 Jan ? 05:17:43 10° SSE 05:22:43 67° ENE 05:27:46 10° NNW visible
29 Jan ? 06:59:10 10° SW 07:03:00 21° W 07:06:52 10° NW visible
29 Jan ? 17:28:01 10° NE 17:31:02 15° E 17:34:05 10° ESE visible
29 Jan ? 19:06:20 10° NNE 19:11:36 83° ESE 19:16:59 10° SSW visible
29 Jan ? 20:46:59 10° N 20:50:52 21° NW 20:54:47 10° WSW visible
30 Jan ? 03:19:06 10° NE 03:19:50 10° NE 03:20:34 10° NE visible
30 Jan ? 04:53:39 10° SE 04:58:25 44° ENE 05:03:15 10° N visible
30 Jan ? 06:33:50 10° SSW 06:38:21 33° W 06:42:57 10° NNW visible
30 Jan ? 18:41:59 10° NNE 18:47:09 55° ESE 18:52:26 10° S visible
30 Jan ? 20:22:12 10° N 20:26:44 30° WNW 20:31:19 10° WSW visible
31 Jan ? 04:29:51 10° ESE 04:34:12 30° ENE 04:38:36 10° N visible
31 Jan ? 06:08:54 10° S 06:13:47 51° W 06:18:46 10° NNW visible
31 Jan ? 18:17:46 10° NNE 18:22:38 36° E 18:27:34 10° SSE visible
31 Jan ? 19:57:33 10° N 20:02:31 44° WNW 20:07:35 10° SW visible
31 Jan ? 21:39:57 10° NNW 21:41:07 11° NW 21:42:16 10° NW visible
